AirNav   TITAN Aviation Fuels
 
 1662 users online  

17TX Kimzey Airport
Stephenville, Texas, USA

GOING TO STEPHENVILLE?


FAA INFORMATION EFFECTIVE 22 APRIL 2021

Location

FAA Identifier: 17TX
Lat/Long: 32-26-55.4810N 098-15-18.1600W
32-26.924683N 098-15.302667W
32.4487447,-98.2550444
(estimated)
Elevation: 1100 ft. / 335 m (estimated)
Variation: 07E (1985)
From city: 12 miles N of STEPHENVILLE, TX
Time zone: UTC -5 (UTC -6 during Standard Time)
Zip code: 76401

Airport Operations

Airport use: Private use. Permission required prior to landing
Activation date: 10/1976
Control tower: no
ARTCC: FORT WORTH CENTER
FSS: FORT WORTH FLIGHT SERVICE STATION
Attendance: CONTINUOUS
Wind indicator: yes
Segmented circle: no

Airport Communications

WX AWOS-3 at SEP (15 nm S): 118.075 (254-965-8672)

Nearby radio navigation aids

VOR radial/distance  VOR name  Freq  Var
MQPr209/21.1MILLSAP VORTAC117.7009E

Airport Services

Runway Information

Runway 17/35

Dimensions: 3200 x 30 ft. / 975 x 9 m
Surface: asphalt
RUNWAY 17  RUNWAY 35
Traffic pattern: leftleft

Airport Ownership and Management from official FAA records

Ownership: Privately-owned
Owner: KIMZEY RANCH
2578 N COUNTY RD 318
STEPHENVILLE, TX 76401
Phone 254-968-4994
Manager: JOHN P. KIMZEY
2578 N COUNTY RD 318
STEPHENVILLE, TX 76401
Phone 254-968-4994

Additional Remarks

FOR CD CTC FORT WORTH ARTCC AT 817-858-7584.

Instrument Procedures

There are no published instrument procedures at 17TX.

Some nearby airports with instrument procedures:

KSEP - Stephenville Clark Regional Airport (15 nm S)
KGDJ - Granbury Regional Airport (22 nm E)
KMWL - Mineral Wells Regional Airport (22 nm NE)
KETN - Eastland Municipal Airport (28 nm W)
F35 - Possum Kingdom Airport (30 nm N)
 
Loc | Ops | Rwys | IFR | FBO | Links
Com | Nav | Svcs | Stats | Notes

City of Fort Worth
 
Area around 17TX (Kimzey Airport)
 
Road maps at: MapQuest Bing Google
 
Aerial photo
No photo
 
Sectional chart

 
Airport distance calculator
Flying to Kimzey Airport? Find the distance to fly.

From to 17TX

Sunrise and sunset
Times for 10-May-2021
 Local
(UTC-5)
 Zulu
(UTC)
Morning civil twilight06:1311:13
Sunrise06:3911:39
Sunset20:1901:19
Evening civil twilight20:4601:46

Current date and time
Zulu (UTC)  10-May-2021 19:08:51
Local (UTC-5)  10-May-2021 14:08:51
 
METAR
KSEP 
15nm S 
101855Z AUTO 01009G14KT 10SM OVC006 14/12 A3006 RMK AO2 T01380115
KGDJ 
22nm E 
AWOS-3 118.925 817-573-7514
101855Z AUTO 01010G15KT 10SM OVC010 15/12 A3005 RMK AO2 T01480117
KMWL 
22nm NE 
101853Z AUTO 01010KT 10SM OVC010 14/11 A3003 RMK AO2 SLP162 T01390111
KETN 
28nm W 
101855Z AUTO 02010KT 10SM OVC007 13/11 A3005 RMK AO2 T01260106
TAF
KNFW 
45nm NE 
1017/1115 02012KT 9999 VCSH OVC012 QNH2998INS TEMPO 1017/1019 02015G20KT 4800 -DZ BR OVC009 BECMG 1019/1021 03015KT 9999 NSW OVC012 QNH2994INS BECMG 1100/1102 02012KT 9999 VCTS BKN015CB OVC018 QNH2992INS WND 010V090 TEMPO 1102/1106 8000 -TSRA BR BKN008CB OVC012 BECMG 1108/1110 08009KT 9999 -RA BKN006 OVC010 QNH2990INS BECMG 1112/1114 05015KT 9000 -TSRA BR BKN005CB OVC010 QNH2995INS T19/1021Z T14/1111Z AMD 1705 FN20046
NOTAMs
Click for the latest NOTAMs
NOTAMs are issued by the DoD/FAA and will open in a separate window not controlled by AirNav.

 

 
 

Would you like to see your business listed on this page?

 If your business provides an interesting product or service to pilots, flight crews, aircraft, or users of the Kimzey Airport, you should consider listing it here.  To start the listing process, click on the button below
 
Add a business
 

Other Pages about Kimzey Airport

Update a link
 
Copyright © AirNav, LLC. All rights reserved. Privacy Policy  Contact